Location: Unspecified
(44.0704°N, 88.6889°W)
Time: 16:01:24
(UTC+02:00)

Transit 2A - Pass Details

Date: 25 June 2019
Orbit: 594 x 965 km, 66.7° (Epoch: 17 July)

Event Time Altitude Azimuth Distance (km) Brightness Sun altitude
Rises 07:23:28 0° 206° (SSW) 3,613 - -22.1°
Reaches altitude 10° 07:26:00 10° 205° (SSW) 2,686 - -22.2°
Exits shadow 07:29:54 40° 201° (SSW) 1,382 6.8 -22.2°
Maximum altitude 07:32:22 81° 120° (ESE) 976 6.4 -22.3°
Drops below altitude 10° 07:38:39 10° 34° (NNE) 2,652 9.5 -22.4°
Sets 07:41:08 0° 33° (NNE) 3,565 10.3 -22.4°
